User: anonymous   Login
Location: Brno
(49.2000°N, 16.6330°E)
Time: 20:12:47
(UTC+01:00)
Language:

Meteor 1-4 Rocket - Orbit

View from above orbital plane
View from above orbital plane
View from above satellite
View from above satellite

Ground track
Ground track

The orbit data is extracted from the following two-line orbital elements,

1 04394U 70037B   17017.52469149  .00001041  00000-0  36560-4 0  9993
2 04394  81.2415 191.6713 0040279 278.5819  81.0853 15.27660189541766
Epoch (UTC): 17 January 2017 12:35:33
Eccentricity: 0.0040279
inclination: 81.2415°
perigee height: 455 km
apogee height: 510 km
right ascension of ascending node: 191.6713°
argument of perigee: 278.5819°
revolutions per day: 15.27660189
mean anomaly at epoch: 81.0853°
orbit number at epoch: 54176

The dashed part of the orbit path shows where the satellite is in the earth's shadow,  

DLR